When you browse on this site, cookies collect data to enhance your experience and personalize the content and advertising you see.
Visit our Privacy Policy to learn more. By continuing to use the site, you agree to this use of cookies and data.
  • In Germany
  • List of Countries
  • For 7 days
  • Water Temperature
  • Weather Map
  • Weather Widgets
  • user-avatar
    Login

    Hourly Weather Bolshie Galashki

    Today, 14 October, Monday

    Time Temperature Precipitation Wind Pressure Humidity
    00:00 +5°C° 0.2 mm 3 mps 714 mmHg 92%
    01:00 +5°C° 0.2 mm 3 mps 714 mmHg 92%
    02:00 +5°C° 0.1 mm 4 mps 714 mmHg 92%
    03:00 +5°C° 0.1 mm 4 mps 714 mmHg 91%
    04:00 +4°C° 0.1 mm 4 mps 714 mmHg 91%
    05:00 +4°C° 0.3 mm 4 mps 714 mmHg 90%
    06:00 +4°C° 0.3 mm 4 mps 713 mmHg 90%
    07:00 +4°C° 0.3 mm 4 mps 713 mmHg 89%
    08:00 +4°C° 0.2 mm 4 mps 713 mmHg 89%
    09:00 +3°C° 0.2 mm 5 mps 714 mmHg 89%
    10:00 +3°C° 0.2 mm 5 mps 714 mmHg 89%
    11:00 +3°C° 0.1 mm 5 mps 714 mmHg 89%
    12:00 +3°C° 0.1 mm 5 mps 714 mmHg 88%
    13:00 +4°C° 0.1 mm 4 mps 714 mmHg 87%
    14:00 +3°C° 0.5 mm 5 mps 714 mmHg 88%
    15:00 +3°C° 0.5 mm 5 mps 715 mmHg 89%
    16:00 +3°C° 0.5 mm 5 mps 715 mmHg 89%
    17:00 +2°C° 0.2 mm 5 mps 715 mmHg 89%
    18:00 +2°C° 0.2 mm 5 mps 716 mmHg 89%
    19:00 +2°C° 0.2 mm 5 mps 716 mmHg 89%
    20:00 +2°C° 0.1 mm 5 mps 716 mmHg 90%
    21:00 +2°C° 0.1 mm 5 mps 717 mmHg 91%
    22:00 +2°C° 0.1 mm 6 mps 717 mmHg 92%
    23:00 +2°C° 0.1 mm 5 mps 717 mmHg 91%

    Tomorrow, 15 October, Tuesday

    Time Temperature Precipitation Wind Pressure Humidity
    00:00 +2°C° 0.1 mm 5 mps 717 mmHg 90%
    01:00 +2°C° 0.1 mm 5 mps 718 mmHg 89%
    02:00 +2°C° 0 mm 5 mps 718 mmHg 89%
    03:00 +2°C° 0 mm 5 mps 718 mmHg 88%
    04:00 +2°C° 0 mm 5 mps 719 mmHg 88%
    05:00 +1°C° 0 mm 4 mps 719 mmHg 88%
    06:00 +1°C° 0 mm 4 mps 719 mmHg 88%
    07:00 +1°C° 0 mm 4 mps 719 mmHg 89%
    08:00 +1°C° 0 mm 4 mps 719 mmHg 88%
    09:00 +2°C° 0 mm 3 mps 719 mmHg 87%
    10:00 +2°C° 0 mm 3 mps 719 mmHg 87%
    11:00 +2°C° 0 mm 3 mps 718 mmHg 86%
    12:00 +4°C° 0 mm 2 mps 718 mmHg 85%
    13:00 +4°C° 0 mm 2 mps 718 mmHg 85%
    14:00 +5°C° 0 mm 1 mps 717 mmHg 86%
    15:00 +5°C° 0 mm 1 mps 717 mmHg 88%
    16:00 +4°C° 0 mm 1 mps 717 mmHg 90%
    17:00 +4°C° 0 mm 1 mps 717 mmHg 91%
    18:00 +4°C° 0 mm 1 mps 717 mmHg 92%
    19:00 +4°C° 0 mm 1 mps 717 mmHg 93%
    20:00 +2°C° 0 mm 2 mps 717 mmHg 92%
    21:00 +2°C° 0 mm 2 mps 717 mmHg 92%
    22:00 0°C° 0 mm 3 mps 718 mmHg 91%
    23:00 0°C° 0 mm 3 mps 718 mmHg 90%

    Day after tomorrow, 16 October, Wednesday

    Time Temperature Precipitation Wind Pressure Humidity
    00:00 -1°C° 0 mm 4 mps 718 mmHg 89%
    01:00 -1°C° 0 mm 4 mps 719 mmHg 88%
    02:00 -2°C° 0 mm 4 mps 719 mmHg 87%
    03:00 -2°C° 0 mm 4 mps 720 mmHg 87%
    04:00 -2°C° 0 mm 4 mps 720 mmHg 86%
    05:00 -2°C° 0.1 mm 4 mps 721 mmHg 86%
    06:00 -2°C° 0.1 mm 4 mps 721 mmHg 86%
    07:00 -3°C° 0.1 mm 4 mps 721 mmHg 86%
    08:00 -2°C° 0 mm 5 mps 722 mmHg 84%
    09:00 -2°C° 0 mm 5 mps 722 mmHg 81%
    10:00 -2°C° 0 mm 5 mps 723 mmHg 79%
    11:00 -2°C° 0 mm 5 mps 723 mmHg 79%
    12:00 -2°C° 0 mm 5 mps 723 mmHg 78%
    13:00 -2°C° 0 mm 5 mps 724 mmHg 78%
    14:00 -2°C° 0 mm 5 mps 724 mmHg 78%
    15:00 -2°C° 0 mm 5 mps 725 mmHg 78%
    16:00 -2°C° 0 mm 5 mps 725 mmHg 78%
    17:00 -2°C° 0 mm 5 mps 725 mmHg 81%
    18:00 -2°C° 0 mm 5 mps 726 mmHg 84%
    19:00 -4°C° 0 mm 5 mps 726 mmHg 87%
    20:00 -4°C° 0 mm 5 mps 726 mmHg 86%
    21:00 -4°C° 0 mm 5 mps 727 mmHg 85%
    22:00 -4°C° 0 mm 5 mps 727 mmHg 85%
    23:00 -3°C° 0 mm 4 mps 727 mmHg 85%

    17 October, Thursday

    Time Temperature Precipitation Wind Pressure Humidity
    00:00 -3°C° 0 mm 4 mps 728 mmHg 85%
    01:00 -3°C° 0 mm 4 mps 728 mmHg 85%
    02:00 -3°C° 0 mm 4 mps 728 mmHg 85%
    03:00 -4°C° 0 mm 4 mps 729 mmHg 86%
    04:00 -4°C° 0 mm 4 mps 729 mmHg 86%
    05:00 -4°C° 0 mm 4 mps 729 mmHg 86%
    06:00 -4°C° 0 mm 4 mps 729 mmHg 86%
    07:00 -4°C° 0 mm 4 mps 729 mmHg 86%
    08:00 -3°C° 0 mm 4 mps 729 mmHg 83%
    09:00 -3°C° 0 mm 4 mps 729 mmHg 80%
    10:00 -3°C° 0 mm 4 mps 730 mmHg 77%
    11:00 -3°C° 0 mm 4 mps 730 mmHg 76%
    12:00 -2°C° 0 mm 4 mps 730 mmHg 74%
    13:00 -2°C° 0 mm 4 mps 730 mmHg 73%
    14:00 -1°C° 0 mm 3 mps 729 mmHg 75%
    15:00 -2°C° 0 mm 3 mps 729 mmHg 77%
    16:00 -2°C° 0 mm 3 mps 729 mmHg 80%
    17:00 -2°C° 0.1 mm 2 mps 729 mmHg 84%
    18:00 -2°C° 0.1 mm 2 mps 729 mmHg 89%
    19:00 -1°C° 0.1 mm 1 mps 729 mmHg 94%
    20:00 -1°C° 0.2 mm 1 mps 728 mmHg 95%
    21:00 -2°C° 0.2 mm 0 mps 728 mmHg 95%
    22:00 -2°C° 0.2 mm 0 mps 728 mmHg 96%
    23:00 -2°C° 0.2 mm 0 mps 728 mmHg 95%

    18 October, Friday

    Time Temperature Precipitation Wind Pressure Humidity
    00:00 -1°C° 0.2 mm 1 mps 728 mmHg 95%
    01:00 -1°C° 0.2 mm 1 mps 727 mmHg 94%
    02:00 -1°C° 0.1 mm 1 mps 727 mmHg 94%
    03:00 -1°C° 0.1 mm 1 mps 727 mmHg 93%
    04:00 -3°C° 0.1 mm 2 mps 727 mmHg 92%
    05:00 -4°C° 0 mm 2 mps 727 mmHg 92%
    06:00 -4°C° 0 mm 2 mps 727 mmHg 91%
    07:00 -5°C° 0 mm 3 mps 727 mmHg 91%
    08:00 -4°C° 0 mm 3 mps 727 mmHg 88%
    09:00 -4°C° 0 mm 4 mps 727 mmHg 86%
    10:00 -5°C° 0 mm 5 mps 727 mmHg 83%
    11:00 -4°C° 0 mm 5 mps 727 mmHg 79%
    12:00 -4°C° 0 mm 5 mps 728 mmHg 76%
    13:00 -4°C° 0 mm 5 mps 728 mmHg 73%
    14:00 -4°C° 0 mm 5 mps 728 mmHg 72%
    15:00 -5°C° 0 mm 5 mps 728 mmHg 72%
    16:00 -4°C° 0 mm 4 mps 728 mmHg 72%
    17:00 -5°C° 0 mm 4 mps 729 mmHg 73%
    18:00 -7°C° 0 mm 4 mps 729 mmHg 75%
    19:00 -7°C° 0 mm 5 mps 730 mmHg 77%
    20:00 -8°C° 0 mm 4 mps 730 mmHg 78%
    21:00 -8°C° 0 mm 4 mps 730 mmHg 80%
    22:00 -9°C° 0 mm 4 mps 730 mmHg 81%
    23:00 -9°C° 0 mm 4 mps 731 mmHg 81%

    19 October, Saturday

    Time Temperature Precipitation Wind Pressure Humidity
    00:00 -9°C° 0 mm 4 mps 731 mmHg 81%
    01:00 -9°C° 0 mm 4 mps 731 mmHg 82%
    02:00 -9°C° 0 mm 4 mps 732 mmHg 82%
    03:00 -9°C° 0 mm 3 mps 732 mmHg 82%
    04:00 -9°C° 0 mm 3 mps 732 mmHg 83%
    05:00 -9°C° 0 mm 3 mps 733 mmHg 83%
    06:00 -9°C° 0 mm 3 mps 733 mmHg 84%
    07:00 -8°C° 0 mm 2 mps 733 mmHg 84%
    08:00 -7°C° 0 mm 2 mps 734 mmHg 78%
    09:00 -6°C° 0 mm 2 mps 734 mmHg 72%
    10:00 -5°C° 0 mm 2 mps 734 mmHg 65%
    11:00 -4°C° 0 mm 2 mps 734 mmHg 60%
    12:00 -3°C° 0 mm 2 mps 735 mmHg 56%
    13:00 -2°C° 0 mm 2 mps 735 mmHg 51%
    14:00 -1°C° 0 mm 1 mps 735 mmHg 53%
    15:00 -1°C° 0 mm 1 mps 735 mmHg 56%
    16:00 -1°C° 0 mm 1 mps 735 mmHg 59%
    17:00 -2°C° 0 mm 1 mps 735 mmHg 64%
    18:00 -3°C° 0 mm 1 mps 735 mmHg 69%
    19:00 -4°C° 0 mm 1 mps 735 mmHg 75%
    20:00 -4°C° 0 mm 1 mps 735 mmHg 77%
    21:00 -4°C° 0 mm 1 mps 735 mmHg 80%
    22:00 -6°C° 0 mm 1 mps 735 mmHg 83%
    23:00 -6°C° 0 mm 1 mps 735 mmHg 83%
    Show more